SCP
0 0 0 0 0 0 0 0 0 0 0 0 0 0 0 0 0 0 0 0 0 0 0 0 0 0 0 0 0 0 0 0 0 0 0 0 0 0 0 0 0 0 0 0
0 0 0 0 0 0 0 0 0 0 0 0 0 -0 0 0 0 0 0 0 0 0 0 0 0 0 0 0 0 0 0 0 0 0 0 0 0 0 0 0 0 0 0 0
0 0 0 0 0 0 0 0 0 0 0 0 0 -0 -0 0 0 0 0 0 0 0 0 0 0 0 0 0 0 0 0 0 0 0 0 0 0 0 0 0 0 0 0 0
0 0 0 0 0 0 0 0 0 0 0 0 0 -0 0 0 0 0 0 0 0 0 0 0 0 0 0 0 0 0 0 0 0 0 0 0 0 0 0 0 0 0 0 0
0 0 0 0 0 0 0 0 0 0 0 0 0 0 -0 -0 0 0 -0 0 0 0 0 0 0 0 0 0 0 0 0 0 0 0 0 0 0 0 0 0 0 0 0 0
0 0 0 0 0 0 0 0 0 0 0 0 0 0 -0 0 0 -0 0 0 0 0 0 0 0 0 0 0 0 0 0 0 0 0 0 0 0 0 0 0 0 0 0 0
0 0 0 0 0 0 0 0 0 0 0 0 0 0 0 0 0 0 0 0 0 0 0 0 0 0 0 0 0 0 0 0 0 0 0 0 0 0 0 0 0 0 0 0
0 0 0 0 0 0 0 0 0 0 0 0 0 0 0 0 0 0 0 0 0 0 0 0 0 0 0 0 0 0 0 0 0 0 0 0 0 0 0 0 0 0 0 0
0 0 0 0 0 0 0 0 0 0 0 0 0 0 0 0 0 0 -0 0 0 0 0 0 0 0 0 0 0 0 0 0 0 0 0 0 0 0 0 0 0 0 0 0
0 0 0 0 0 0 0 0 0 0 0 0 0 0 0 0 0 0 0 0 0 0 0 0 0 0 0 0 0 0 0 0 0 0 0 0 0 0 0 0 0 0 0 0
0 0 0 0 0 0 0 0 0 0 0 0 0 0 0 0 0 0 0 0 0 0 0 0 0 0 0 0 0 0 0 0 0 0 0 0 0 0 0 0 0 0 0 0
0 0 0 0 0 0 0 0 0 0 0 0 0 0 0 0 0 0 0 0 0 0 0 0 0 0 0 0 0 0 0 0 0 0 0 0 0 0 0 0 0 0 0 0
0 0 0 0 0 0 0 0 0 0 0 0 0 0 0 0 0 0 0 0 0 -0 -0 -0 -0 -0 0 0 0 0 0 0 0 0 0 0 0 0 0 0 0 0 0 0
0 0 0 0 0 0 0 0 0 0 0 0 0 0 0 0 0 0 0 0 0 0 0 0 0 0 0 0 0 0 0 0 0 0 0 0 0 0 0 0 0 0 0 0
0 0 0 0 0 0 0 0 0 0 0 0 0 0 0 0 0 0 0 0 0 0 0 0 0 0 0 0 0 0 0 0 0 0 0 0 0 0 0 0 0 0 0 0
0 0 0 0 0 0 0 0 0 0 0 0 0 -0 0 0 0 0 0 0 0 0 0 0 0 0 0 0 0 0 0 0 0 0 0 0 0 0 0 0 0 0 0 0
0 0 0 0 0 0 0 0 0 0 0 0 0 0 0 0 0 0 0 0 0 0 0 0 0 0 0 -0 -0 0 0 0 0 0 0 0 0 0 0 0 0 0 0 0
0 0 0 0 0 0 0 0 0 0 0 0 0 0 0 0 0 0 0 0 0 0 0 0 0 0 -0 -0 -0 -0 -0 0 0 0 0 0 0 0 0 0 0 0 0 0
0 0 0 0 0 0 0 0 0 0 0 0 0 0 0 0 0 0 0 0 0 0 0 0 0 0 0 0 0 0 0 0 0 0 0 0 0 0 0 0 0 0 0 0
0 0 0 0 0 0 0 0 0 0 0 0 0 0 0 0 0 0 0 0 0 0 0 0 0 0 0 0 0 0 0 0 0 0 0 0 0 0 0 0 0 0 0 0
0 0 0 0 0 0 0 0 0 0 0 0 0 0 0 0 0 0 0 0 0 0 0 0 0 0 0 0 0 0 0 0 0 0 0 0 0 0 0 0 0 0 0 0
0 0 0 0 0 0 0 0 0 0 0 0 0 0 0 0 0 0 0 0 0 0 0 0 -0 -0 -0 -0 -0 0 0 0 0 0 0 0 0 0 0 0 0 0 0 0
0 0 0 0 0 0 0 0 0 0 0 0 0 0 0 0 0 0 0 0 0 0 0 0 -0 -0 -0 -0 -0 -0 -0 0 0 0 0 0 0 0 0 0 0 0 0 0
0 0 0 0 0 0 0 0 0 0 0 0 0 0 0 0 -0 -0 0 0 0 0 0 0 0 0 0 0 0 0 0 0 0 0 0 0 0 0 0 0 0 0 0 0
0 0 0 0 0 0 0 0 0 0 0 0 0 0 0 0 0 0 0 0 0 0 0 0 0 0 0 0 0 0 0 0 0 0 0 0 0 0 0 0 0 0 0 0
0 0 0 0 0 0 0 0 0 0 0 0 0 0 0 0 0 0 0 0 0 0 0 0 0 0 0 0 0 0 0 0 0 0 0 0 0 0 0 0 0 0 0 0
Wind_Speed_500mb
12 8 12 20 17 12 5 4 4 6 8 9 15 17 22 44 46 56 65 62 59 62 54 47 51 55 57 69 72 72 72 79 82 83 90 78 79 77 70 65 59 56 59 58
8 10 20 14 10 11 5 6 8 6 7 7 12 23 22 29 43 61 62 69 77 68 63 56 58 60 62 64 75 78 78 80 87 89 89 95 86 86 76 70 65 63 60 65
14 11 27 12 7 7 4 8 7 11 3 7 10 15 18 11 20 37 50 63 69 70 67 63 61 66 70 73 74 79 81 84 88 90 88 93 82 81 80 80 75 72 69 66
13 16 6 10 12 13 7 8 9 9 4 7 5 14 12 16 20 17 60 64 62 52 51 53 63 59 74 79 75 77 77 81 87 90 92 92 95 91 86 82 77 75 76 71
14 11 12 13 10 11 13 4 5 8 5 6 6 6 15 13 14 23 43 58 49 44 36 48 43 59 62 59 73 73 74 79 86 87 87 85 91 88 83 76 76 76 76 74
11 5 7 15 4 5 15 11 15 11 6 9 17 16 6 10 15 14 12 30 28 28 30 35 36 39 44 53 63 66 69 73 79 81 82 80 85 82 84 79 75 77 78 78
7 6 4 9 12 12 10 13 2 4 2 16 8 11 12 14 15 15 15 16 12 17 21 25 30 37 44 49 55 60 63 69 76 81 80 78 74 75 78 74 72 71 74 78
17 11 19 13 17 18 16 15 12 15 9 11 7 14 10 14 22 19 20 22 16 25 24 25 29 33 32 36 44 52 57 63 72 79 79 75 70 72 74 69 68 65 64 67
12 11 5 7 6 19 12 14 10 4 3 4 9 15 17 18 19 29 57 51 33 24 25 25 26 27 29 32 37 44 51 57 66 72 72 71 68 70 72 67 63 59 56 55
5 2 7 3 4 3 11 12 3 3 3 9 10 12 13 19 23 19 23 32 20 24 28 29 29 28 31 37 39 42 48 53 59 65 64 63 64 66 66 65 61 57 54 54
12 9 5 7 11 17 5 7 7 8 10 10 5 12 12 11 2 7 13 20 23 22 20 31 30 27 32 36 37 39 43 48 55 60 54 56 58 60 63 62 58 55 51 50
4 8 9 16 11 15 10 13 12 9 7 9 6 29 3 12 8 13 16 22 26 26 24 20 25 29 36 37 36 37 39 40 44 48 45 50 51 54 57 55 55 51 49 49
6 1 5 9 4 6 7 8 12 13 5 23 7 19 8 13 18 31 25 32 32 28 28 26 29 36 36 33 38 35 34 34 39 44 45 44 49 51 51 50 51 50 49 49
18 6 9 10 7 3 2 6 9 6 9 20 33 50 24 24 27 38 56 37 27 27 31 33 34 34 32 30 31 34 34 34 38 41 42 42 42 44 46 47 50 49 47 48
9 10 8 14 5 6 12 20 21 15 20 13 24 31 6 22 35 35 28 29 17 16 30 37 42 37 36 35 35 36 34 34 36 40 41 43 42 44 45 49 51 50 51 50
3 5 9 5 13 18 13 28 24 24 25 19 31 49 34 45 36 39 35 28 15 33 32 31 25 30 34 38 36 38 37 38 33 39 49 53 53 52 52 54 57 56 56 56
9 9 7 7 6 3 14 24 31 14 13 11 21 30 17 12 8 25 24 24 24 27 27 30 30 28 27 31 37 34 31 39 48 51 55 60 66 64 65 64 63 63 63 60
10 10 7 6 5 6 11 2 11 27 8 20 14 13 9 18 25 19 32 33 35 34 35 37 37 35 34 32 33 40 43 43 48 54 58 65 72 74 70 72 69 67 66 64
9 7 5 7 6 11 13 10 14 15 5 3 4 8 16 36 8 2 42 39 39 43 40 38 38 38 37 38 39 42 45 49 55 62 63 61 67 74 76 74 70 69 67 66
7 5 6 7 7 15 11 4 8 7 5 3 3 5 12 24 7 7 44 42 37 42 40 42 40 39 38 36 38 40 42 42 44 48 53 54 58 66 73 71 70 69 67 65
10 8 24 15 8 14 14 7 2 8 9 10 2 5 8 2 8 34 36 34 36 41 45 46 46 48 47 42 40 41 43 41 43 43 46 50 51 56 60 64 67 66 65 63
15 16 9 7 4 17 9 6 13 10 15 18 11 11 10 19 32 36 38 43 45 46 44 45 48 51 52 51 50 44 42 44 42 42 41 40 41 45 47 53 59 60 60 61
7 12 11 15 12 8 15 13 18 24 24 11 14 21 21 32 36 41 45 44 42 43 45 45 52 57 56 53 53 52 44 38 41 40 36 33 31 32 36 41 45 51 54 59
7 6 6 8 2 12 17 17 29 18 10 8 18 23 26 32 36 42 43 42 43 43 44 47 54 55 56 50 47 49 47 42 37 37 34 30 26 25 27 32 36 42 47 54
10 11 10 2 5 12 16 22 7 2 11 24 30 29 32 35 39 38 39 43 49 52 51 46 46 49 53 54 49 42 39 35 33 29 27 22 19 18 21 24 27 33 34 39
13 11 8 7 15 7 12 5 11 20 20 20 25 35 29 30 37 44 50 51 55 57 54 53 54 55 53 51 48 46 40 37 29 26 24 16 13 11 13 17 20 25 28 30
Wind_Direction_500mb
186 113 183 208 199 197 198 168 200 252 217 165 223 253 263 276 280 276 268 263 257 252 256 252 245 241 236 230 232 231 227 224 223 221 218 215 217 223 223 225 224 224 221 222
61 205 217 206 181 188 189 166 254 311 181 159 263 264 258 258 261 261 265 266 261 257 254 248 246 238 237 233 229 230 231 228 228 230 226 223 222 225 229 230 229 226 226 226
162 220 209 154 162 152 218 173 226 218 358 298 312 279 265 276 251 270 271 264 265 258 255 253 247 243 238 232 230 231 233 231 231 231 229 229 225 229 230 229 229 226 226 229
213 230 113 169 201 145 229 201 219 254 39 240 145 288 288 273 278 279 277 272 263 259 257 256 244 242 240 236 229 232 233 233 230 233 233 233 226 228 230 232 232 229 229 234
233 185 182 193 206 154 210 156 165 177 174 337 234 274 267 267 282 256 260 269 278 275 265 252 247 239 247 239 230 231 232 232 234 236 237 233 226 230 239 241 235 232 233 232
179 131 174 187 82 159 148 70 36 38 71 272 187 203 236 202 218 264 291 288 287 257 248 229 222 224 231 225 224 228 231 235 239 240 242 237 232 234 237 236 235 234 234 233
165 216 128 129 77 10 109 104 342 340 345 245 270 233 241 278 244 215 275 296 280 231 212 211 224 232 230 228 226 229 235 238 237 239 241 241 239 238 238 239 240 239 237 236
181 256 164 190 177 175 193 160 162 196 205 264 343 245 260 242 258 274 296 305 267 236 239 237 236 234 232 231 235 238 237 235 235 237 240 241 240 240 240 239 239 241 244 245
166 243 141 127 127 150 208 215 170 38 86 11 229 285 290 271 254 281 277 268 266 252 251 262 250 241 239 241 243 242 240 238 237 237 238 241 242 240 240 239 238 241 243 240
203 135 354 48 95 24 148 165 105 20 179 256 256 264 233 297 280 288 290 298 308 285 271 264 267 267 263 253 247 242 241 242 243 241 241 241 240 240 239 239 240 243 245 242
172 138 290 132 200 169 144 196 197 159 160 190 288 259 217 204 161 76 53 44 18 359 295 276 273 268 264 260 254 251 247 243 242 242 242 240 237 235 236 241 246 246 244 241
193 149 175 207 226 207 190 193 171 155 238 226 198 261 6 133 82 74 53 6 344 335 331 299 275 278 284 274 259 259 252 245 242 244 244 241 240 237 238 241 245 246 244 243
149 36 82 346 10 1 204 213 217 235 70 232 145 256 14 89 67 14 343 347 348 354 349 330 310 300 290 276 273 261 250 246 242 242 241 240 241 240 242 242 243 244 244 245
109 159 191 178 116 73 125 339 53 30 204 254 236 270 269 311 341 3 353 341 357 2 1 349 336 326 313 296 279 268 256 246 241 240 240 241 242 245 246 247 246 245 245 245
112 196 198 251 261 206 231 244 253 243 253 253 274 290 7 335 315 318 338 352 3 16 354 356 350 343 335 323 309 289 263 254 252 252 248 248 247 248 251 252 250 247 245 246
68 168 161 231 239 222 228 228 230 236 233 244 266 266 282 279 300 305 303 310 289 321 329 341 343 336 333 327 325 314 284 265 276 274 272 264 258 257 258 259 255 251 249 245
148 144 132 249 190 116 301 208 201 195 205 201 223 247 294 308 344 355 3 28 18 353 346 340 337 334 326 315 312 313 306 285 281 285 280 273 266 260 260 259 256 251 248 247
149 148 141 180 115 213 237 112 199 198 133 218 273 15 357 322 315 73 42 27 16 5 355 347 343 337 326 314 304 301 298 289 286 288 289 282 271 264 262 263 259 254 250 247
178 139 156 181 196 307 294 221 171 178 184 283 121 354 350 353 8 84 7 2 357 351 351 351 348 345 340 334 324 310 296 282 276 273 277 279 278 269 263 261 261 258 252 248
181 206 150 148 197 215 239 336 347 123 194 230 83 10 353 359 44 274 341 351 359 360 348 344 343 340 333 328 322 316 311 302 296 288 280 278 277 272 266 265 263 259 255 251
165 207 213 204 219 284 241 266 349 122 212 159 123 3 358 345 268 313 330 337 341 344 348 346 344 344 340 335 329 323 316 311 302 293 284 276 272 270 268 265 259 256 253 250
169 170 193 164 153 262 158 76 168 155 121 108 56 348 315 318 319 318 318 322 326 331 332 335 337 344 345 340 336 328 323 316 307 302 296 285 275 268 264 260 257 254 250 246
208 181 174 174 205 153 134 124 126 122 109 81 12 347 314 320 324 319 318 319 318 322 321 317 320 323 323 332 338 335 330 323 314 306 300 292 279 268 263 258 256 252 247 243
278 158 152 91 175 150 145 142 141 117 91 21 347 325 311 303 312 314 316 319 326 326 322 314 315 318 321 319 326 334 332 330 328 317 310 303 292 279 268 259 252 247 245 247
207 131 164 296 213 105 144 133 151 234 320 320 323 324 313 308 308 308 312 319 321 321 321 319 318 318 320 319 316 322 323 329 332 327 318 313 306 298 281 271 266 262 258 254
187 172 166 206 151 123 176 196 284 307 322 321 315 309 295 303 306 306 308 310 310 311 307 307 309 311 312 315 313 307 308 309 312 322 317 317 327 333 309 292 277 267 258 249
Wind_Speed_850mb
12 8 12 20 17 12 5 4 4 6 8 9 15 17 22 44 46 56 65 62 59 62 54 47 51 55 57 69 72 72 72 79 82 83 90 78 79 77 70 65 59 56 59 58
8 10 20 14 10 11 5 6 8 6 7 7 12 23 22 29 43 61 62 69 77 68 63 56 58 60 62 64 75 78 78 80 87 89 89 95 86 86 76 70 65 63 60 65
14 11 27 12 7 7 4 8 7 11 3 7 10 15 18 11 20 37 50 63 69 70 67 63 61 66 70 73 74 79 81 84 88 90 88 93 82 81 80 80 75 72 69 66
13 16 6 10 12 13 7 8 9 9 4 7 5 14 12 16 20 17 60 64 62 52 51 53 63 59 74 79 75 77 77 81 87 90 92 92 95 91 86 82 77 75 76 71
14 11 12 13 10 11 13 4 5 8 5 6 6 6 15 13 14 23 43 58 49 44 36 48 43 59 62 59 73 73 74 79 86 87 87 85 91 88 83 76 76 76 76 74
11 5 7 15 4 5 15 11 15 11 6 9 17 16 6 10 15 14 12 30 28 28 30 35 36 39 44 53 63 66 69 73 79 81 82 80 85 82 84 79 75 77 78 78
7 6 4 9 12 12 10 13 2 4 2 16 8 11 12 14 15 15 15 16 12 17 21 25 30 37 44 49 55 60 63 69 76 81 80 78 74 75 78 74 72 71 74 78
17 11 19 13 17 18 16 15 12 15 9 11 7 14 10 14 22 19 20 22 16 25 24 25 29 33 32 36 44 52 57 63 72 79 79 75 70 72 74 69 68 65 64 67
12 11 5 7 6 19 12 14 10 4 3 4 9 15 17 18 19 29 57 51 33 24 25 25 26 27 29 32 37 44 51 57 66 72 72 71 68 70 72 67 63 59 56 55
5 2 7 3 4 3 11 12 3 3 3 9 10 12 13 19 23 19 23 32 20 24 28 29 29 28 31 37 39 42 48 53 59 65 64 63 64 66 66 65 61 57 54 54
12 9 5 7 11 17 5 7 7 8 10 10 5 12 12 11 2 7 13 20 23 22 20 31 30 27 32 36 37 39 43 48 55 60 54 56 58 60 63 62 58 55 51 50
4 8 9 16 11 15 10 13 12 9 7 9 6 29 3 12 8 13 16 22 26 26 24 20 25 29 36 37 36 37 39 40 44 48 45 50 51 54 57 55 55 51 49 49
6 1 5 9 4 6 7 8 12 13 5 23 7 19 8 13 18 31 25 32 32 28 28 26 29 36 36 33 38 35 34 34 39 44 45 44 49 51 51 50 51 50 49 49
18 6 9 10 7 3 2 6 9 6 9 20 33 50 24 24 27 38 56 37 27 27 31 33 34 34 32 30 31 34 34 34 38 41 42 42 42 44 46 47 50 49 47 48
9 10 8 14 5 6 12 20 21 15 20 13 24 31 6 22 35 35 28 29 17 16 30 37 42 37 36 35 35 36 34 34 36 40 41 43 42 44 45 49 51 50 51 50
3 5 9 5 13 18 13 28 24 24 25 19 31 49 34 45 36 39 35 28 15 33 32 31 25 30 34 38 36 38 37 38 33 39 49 53 53 52 52 54 57 56 56 56
9 9 7 7 6 3 14 24 31 14 13 11 21 30 17 12 8 25 24 24 24 27 27 30 30 28 27 31 37 34 31 39 48 51 55 60 66 64 65 64 63 63 63 60
10 10 7 6 5 6 11 2 11 27 8 20 14 13 9 18 25 19 32 33 35 34 35 37 37 35 34 32 33 40 43 43 48 54 58 65 72 74 70 72 69 67 66 64
9 7 5 7 6 11 13 10 14 15 5 3 4 8 16 36 8 2 42 39 39 43 40 38 38 38 37 38 39 42 45 49 55 62 63 61 67 74 76 74 70 69 67 66
7 5 6 7 7 15 11 4 8 7 5 3 3 5 12 24 7 7 44 42 37 42 40 42 40 39 38 36 38 40 42 42 44 48 53 54 58 66 73 71 70 69 67 65
10 8 24 15 8 14 14 7 2 8 9 10 2 5 8 2 8 34 36 34 36 41 45 46 46 48 47 42 40 41 43 41 43 43 46 50 51 56 60 64 67 66 65 63
15 16 9 7 4 17 9 6 13 10 15 18 11 11 10 19 32 36 38 43 45 46 44 45 48 51 52 51 50 44 42 44 42 42 41 40 41 45 47 53 59 60 60 61
7 12 11 15 12 8 15 13 18 24 24 11 14 21 21 32 36 41 45 44 42 43 45 45 52 57 56 53 53 52 44 38 41 40 36 33 31 32 36 41 45 51 54 59
7 6 6 8 2 12 17 17 29 18 10 8 18 23 26 32 36 42 43 42 43 43 44 47 54 55 56 50 47 49 47 42 37 37 34 30 26 25 27 32 36 42 47 54
10 11 10 2 5 12 16 22 7 2 11 24 30 29 32 35 39 38 39 43 49 52 51 46 46 49 53 54 49 42 39 35 33 29 27 22 19 18 21 24 27 33 34 39
13 11 8 7 15 7 12 5 11 20 20 20 25 35 29 30 37 44 50 51 55 57 54 53 54 55 53 51 48 46 40 37 29 26 24 16 13 11 13 17 20 25 28 30
Wind_Direction_850mb
186 113 183 208 199 197 198 168 200 252 217 165 223 253 263 276 280 276 268 263 257 252 256 252 245 241 236 230 232 231 227 224 223 221 218 215 217 223 223 225 224 224 221 222
61 205 217 206 181 188 189 166 254 311 181 159 263 264 258 258 261 261 265 266 261 257 254 248 246 238 237 233 229 230 231 228 228 230 226 223 222 225 229 230 229 226 226 226
162 220 209 154 162 152 218 173 226 218 358 298 312 279 265 276 251 270 271 264 265 258 255 253 247 243 238 232 230 231 233 231 231 231 229 229 225 229 230 229 229 226 226 229
213 230 113 169 201 145 229 201 219 254 39 240 145 288 288 273 278 279 277 272 263 259 257 256 244 242 240 236 229 232 233 233 230 233 233 233 226 228 230 232 232 229 229 234
233 185 182 193 206 154 210 156 165 177 174 337 234 274 267 267 282 256 260 269 278 275 265 252 247 239 247 239 230 231 232 232 234 236 237 233 226 230 239 241 235 232 233 232
179 131 174 187 82 159 148 70 36 38 71 272 187 203 236 202 218 264 291 288 287 257 248 229 222 224 231 225 224 228 231 235 239 240 242 237 232 234 237 236 235 234 234 233
165 216 128 129 77 10 109 104 342 340 345 245 270 233 241 278 244 215 275 296 280 231 212 211 224 232 230 228 226 229 235 238 237 239 241 241 239 238 238 239 240 239 237 236
181 256 164 190 177 175 193 160 162 196 205 264 343 245 260 242 258 274 296 305 267 236 239 237 236 234 232 231 235 238 237 235 235 237 240 241 240 240 240 239 239 241 244 245
166 243 141 127 127 150 208 215 170 38 86 11 229 285 290 271 254 281 277 268 266 252 251 262 250 241 239 241 243 242 240 238 237 237 238 241 242 240 240 239 238 241 243 240
203 135 354 48 95 24 148 165 105 20 179 256 256 264 233 297 280 288 290 298 308 285 271 264 267 267 263 253 247 242 241 242 243 241 241 241 240 240 239 239 240 243 245 242
172 138 290 132 200 169 144 196 197 159 160 190 288 259 217 204 161 76 53 44 18 359 295 276 273 268 264 260 254 251 247 243 242 242 242 240 237 235 236 241 246 246 244 241
193 149 175 207 226 207 190 193 171 155 238 226 198 261 6 133 82 74 53 6 344 335 331 299 275 278 284 274 259 259 252 245 242 244 244 241 240 237 238 241 245 246 244 243
149 36 82 346 10 1 204 213 217 235 70 232 145 256 14 89 67 14 343 347 348 354 349 330 310 300 290 276 273 261 250 246 242 242 241 240 241 240 242 242 243 244 244 245
109 159 191 178 116 73 125 339 53 30 204 254 236 270 269 311 341 3 353 341 357 2 1 349 336 326 313 296 279 268 256 246 241 240 240 241 242 245 246 247 246 245 245 245
112 196 198 251 261 206 231 244 253 243 253 253 274 290 7 335 315 318 338 352 3 16 354 356 350 343 335 323 309 289 263 254 252 252 248 248 247 248 251 252 250 247 245 246
68 168 161 231 239 222 228 228 230 236 233 244 266 266 282 279 300 305 303 310 289 321 329 341 343 336 333 327 325 314 284 265 276 274 272 264 258 257 258 259 255 251 249 245
148 144 132 249 190 116 301 208 201 195 205 201 223 247 294 308 344 355 3 28 18 353 346 340 337 334 326 315 312 313 306 285 281 285 280 273 266 260 260 259 256 251 248 247
149 148 141 180 115 213 237 112 199 198 133 218 273 15 357 322 315 73 42 27 16 5 355 347 343 337 326 314 304 301 298 289 286 288 289 282 271 264 262 263 259 254 250 247
178 139 156 181 196 307 294 221 171 178 184 283 121 354 350 353 8 84 7 2 357 351 351 351 348 345 340 334 324 310 296 282 276 273 277 279 278 269 263 261 261 258 252 248
181 206 150 148 197 215 239 336 347 123 194 230 83 10 353 359 44 274 341 351 359 360 348 344 343 340 333 328 322 316 311 302 296 288 280 278 277 272 266 265 263 259 255 251
165 207 213 204 219 284 241 266 349 122 212 159 123 3 358 345 268 313 330 337 341 344 348 346 344 344 340 335 329 323 316 311 302 293 284 276 272 270 268 265 259 256 253 250
169 170 193 164 153 262 158 76 168 155 121 108 56 348 315 318 319 318 318 322 326 331 332 335 337 344 345 340 336 328 323 316 307 302 296 285 275 268 264 260 257 254 250 246
208 181 174 174 205 153 134 124 126 122 109 81 12 347 314 320 324 319 318 319 318 322 321 317 320 323 323 332 338 335 330 323 314 306 300 292 279 268 263 258 256 252 247 243
278 158 152 91 175 150 145 142 141 117 91 21 347 325 311 303 312 314 316 319 326 326 322 314 315 318 321 319 326 334 332 330 328 317 310 303 292 279 268 259 252 247 245 247
207 131 164 296 213 105 144 133 151 234 320 320 323 324 313 308 308 308 312 319 321 321 321 319 318 318 320 319 316 322 323 329 332 327 318 313 306 298 281 271 266 262 258 254
187 172 166 206 151 123 176 196 284 307 322 321 315 309 295 303 306 306 308 310 310 311 307 307 309 311 312 315 313 307 308 309 312 322 317 317 327 333 309 292 277 267 258 249